RH
48 47 45 43 41 37 33 28 25 27 22 24 29 34 26 37 44 46 52 56 53 52 53 55 60 62 66 68 70 65 73 81 86 80 75 65 57 52 51 49 46 47 50 52
47 50 44 40 36 32 30 29 32 31 22 28 28 37 34 37 43 44 47 49 52 52 51 54 58 61 64 69 71 72 76 82 79 76 63 61 56 53 51 49 51 55 57 59
55 45 36 36 33 33 33 27 42 35 34 27 38 44 35 34 37 40 45 50 54 54 52 56 59 63 66 70 71 68 69 69 66 61 57 52 50 50 52 54 54 58 63 63
53 44 40 37 39 38 41 33 40 35 40 37 30 33 46 31 29 32 33 41 46 51 52 58 61 62 64 63 60 58 56 57 55 51 50 53 58 61 58 60 61 64 63 62
51 38 39 40 48 31 52 40 32 33 35 48 38 32 50 48 33 33 38 41 42 43 50 55 58 54 56 57 57 54 52 49 45 48 51 52 56 60 62 63 63 62 58 56
51 36 33 45 30 34 32 34 31 31 40 43 33 43 36 54 42 37 37 42 44 45 46 52 52 51 53 54 52 49 49 49 48 50 52 56 60 60 65 70 66 62 48 44
44 40 37 34 35 29 31 40 44 39 41 40 43 38 31 39 48 44 36 37 43 43 44 47 46 48 53 54 51 50 51 51 51 54 57 56 59 63 68 80 61 46 45 43
39 46 33 31 34 46 36 42 43 43 40 32 43 36 30 32 30 26 38 41 43 43 43 45 44 47 51 54 53 52 54 53 54 56 56 58 65 71 78 66 44 43 39 34
41 48 45 34 32 32 44 36 37 44 40 35 25 28 35 29 24 28 39 39 42 41 42 44 46 49 51 55 55 55 55 53 55 59 63 65 65 65 62 54 50 40 36 34
42 45 38 32 30 28 29 40 34 30 40 40 31 34 28 33 23 27 36 36 39 41 42 41 45 47 50 53 57 57 54 54 59 66 65 63 64 67 63 48 40 40 38 39
36 34 44 33 29 36 36 27 27 35 44 40 28 28 29 16 22 23 28 35 34 36 39 42 44 44 47 51 54 55 55 60 63 67 67 64 60 60 48 41 43 43 42 48
25 35 44 39 36 29 33 39 39 33 34 29 32 21 19 16 17 22 24 30 32 35 38 43 43 45 47 50 52 55 59 63 66 72 66 57 59 51 45 48 50 48 53 48
28 28 40 40 33 31 26 26 28 29 30 25 37 24 23 18 17 18 23 27 31 34 38 42 42 45 48 50 53 55 61 62 68 69 60 61 58 51 53 53 55 60 54 47
29 28 35 42 51 45 38 29 29 26 27 24 23 20 21 21 20 20 22 24 30 33 39 41 43 46 50 52 55 59 61 65 68 64 63 59 55 55 54 58 65 60 52 46
34 34 34 35 41 41 34 32 29 25 22 26 21 20 18 20 20 21 24 24 27 33 35 39 43 47 51 53 56 60 61 66 68 65 61 58 57 58 63 65 63 56 50 44
39 39 36 35 33 35 34 29 24 24 22 23 21 21 20 22 23 22 25 26 28 33 37 41 43 47 50 52 55 60 66 68 71 63 61 62 63 67 67 61 57 52 47 48
45 42 41 36 36 35 39 29 25 24 24 23 24 23 28 29 26 25 28 30 31 33 36 38 42 48 52 54 56 64 69 72 68 68 68 68 72 70 62 57 51 48 50 54
44 41 41 38 40 52 22 23 22 24 23 25 26 25 27 28 29 30 29 31 32 34 38 42 47 50 55 58 61 69 72 71 76 69 75 80 75 62 57 52 45 49 52 50
40 39 42 52 34 27 23 20 21 23 21 23 26 25 27 30 28 29 36 37 38 41 41 45 50 56 63 64 68 71 73 76 72 84 79 77 65 60 54 48 46 49 46 48
40 41 40 40 54 57 31 27 25 26 26 28 26 28 29 30 37 38 43 42 40 42 47 52 58 64 68 70 72 73 76 83 83 80 83 72 63 54 51 55 52 49 50 49
44 47 49 46 51 36 27 25 25 29 35 32 29 32 33 35 38 42 41 41 46 52 58 62 69 75 76 74 76 83 84 87 85 85 73 67 58 55 59 49 47 50 48 50
39 42 49 46 55 48 26 28 31 38 32 34 33 36 39 40 41 45 46 47 54 62 69 72 75 74 74 80 88 90 90 86 87 77 66 62 62 60 55 52 48 54 50 53
40 36 40 34 39 36 29 30 34 32 32 34 37 38 42 44 46 51 59 62 66 70 70 69 70 77 83 88 92 91 93 87 75 71 66 66 61 58 57 52 48 47 52 53
36 33 34 33 32 34 35 33 33 35 37 38 40 45 50 57 66 69 70 67 67 64 63 73 79 86 92 94 95 87 82 81 73 67 63 58 62 61 49 47 41 48 51 47
38 37 37 37 32 35 36 41 39 40 45 50 58 63 65 68 69 73 73 67 69 71 78 84 90 95 95 94 87 85 82 75 69 64 61 64 58 54 51 45 42 43 43 48
40 38 41 41 41 37 40 44 45 51 58 62 64 67 65 68 70 71 72 76 82 86 88 92 92 93 92 91 87 81 75 69 65 62 59 58 55 51 48 43 39 39 42 47